DECAYED

DMSP 5D-2 F13 DEB, 42257 (Decayed)

Orbit data source: Space-Track

DMSP 5D-2 F13 DEB, 42257 was space debris in SSO originally from a launch on Fri, 24 Mar 1995 UTC launched from the Air Force Western Test Range (AFWTR). Debris objects in space refer to the collection of defunct objects orbiting the Earth. Examples of debris include non-operational satellites, rocket bodies, and fragments generated from explosions, collisions, or faulty payload assembly.

Not visible in the next 10 days
Identifier
42257, 1995-015FX
Orbit
Decayed
Country
Flag of USUS
Related business
Manufacturer
Unknown
Mission
Decayed spacecraft
Bus & Motor
Unknown
Mass
Unknown
Launch date (UTC)
1995-03-24 (31 years ago)
Launch vehicle
Unknown
Launch site
Air Force Western Test Range (AFWTR)
Object type
Payload
Rocket body
Debris
Shape & HBR
Unknown shape, 0.1 m
Radar Cross Section
Small (<0.1 m²)

Expand to show TLE details & history
Last TLE update: 1 year ago

TLE from 1 year ago
0 DMSP 5D-2 F13 DEB
1 42257U 95015FX  25026.24342810  .00515714  00000-0  15884-1 0  9999
2 42257  98.7217 188.7728 0028117 323.4933  36.4387 15.31116209486708
Epoch: 2025-01-26T05:50Z
TLE epoch observation values (Epoch: 2025-01-26T05:50:32.187Z)
Latitude
-0.00001°
Longitude
-24.642°
Altitude
460.065 km
Speed
7.645 km/s
True Right ascension
12h 35m 05s
True Declination
0° 00' 00"
Sunlit
Object was in full shadow at epoch
Visualization orbit readout
Latitude
Unknown
Longitude
Unknown
Altitude
Unknown
Speed
Unknown
Apparent Right ascension
Unknown
Apparent Declination
Unknown
Sunlit
N/A
Visualization observer readout
Local Sidereal Time
17:45:03
Azimuth
Unknown
Elevation
Unknown
Doppler factor
Unknown
Orbital elements
Apogee altitude
488.747 km
Perigee altitude
450.24 km
Semi-major axis
6,847.63 km
Eccentricity
0.00281
Inclination
98.7217°
RAAN
188.7728°
Arg. of periapsis
323.4933°
True anomaly
36.63062°
Mean anomaly
36.4387°
Eccentric anomaly
36.5346°
Mean motion
3.8303 °/min
Orbital period
93.99 mins
BSTAR
0.015884
Loading maneuver chart data...
Computing Atmospheric mass density...

Documentation

Showing up to 5 results
|